This demonstration page uses our WeatherBlox Daily Observations layout. Learn more.

Left ArrowRight Arrow

Hourly Observations for December 1, 2021

Temp ( °F °C ) Dew Point ( °F °C ) Humidity (%) Winds ( mph kmh ) Pressure ( in mb ) Visibility ( mi km ) Precip ( " mm )
12:15 am 00:15 Mostly Cloudy 49 9.3 35 1.5 59 59 W 10 17 29.99 1016 10 16 N/A
12:35 am 00:35 Partly Cloudy 47 8.2 34 1.2 62 62 W 9 15 29.99 1016 10 16 N/A
12:55 am 00:55 Clear 46 7.5 34 1 64 64 W 10 17 30.00 1016 10 16 N/A
1:15 am 01:15 Clear 44 6.8 33 0.5 65 65 W 9 15 29.98 1015 10 16 N/A
1:35 am 01:35 Partly Cloudy 44 6.8 33 0.5 65 65 W 9 15 29.99 1016 10 16 N/A
1:55 am 01:55 Mostly Cloudy 44 6.4 32 undefined 64 64 WNW 8 13 30.01 1016 10 16 N/A
2:15 am 02:15 Cloudy 42 5.8 32 undefined 67 67 WNW 8 13 30.01 1016 10 16 N/A
2:35 am 02:35 Cloudy 43 5.9 32 undefined 66 66 WNW 6 9 30.03 1017 10 16 N/A
2:55 am 02:55 Partly Cloudy 41 4.9 32 -0.2 70 70 NW 8 13 30.05 1018 10 16 N/A
3:15 am 03:15 Clear 42 5.7 32 undefined 67 67 NW 9 15 30.04 1017 10 16 N/A
3:35 am 03:35 Clear 40 4.6 31 -0.4 70 70 WNW 8 13 30.05 1018 10 16 N/A
3:55 am 03:55 Clear 39 4.1 31 -0.5 72 72 WNW 7 11 30.06 1018 10 16 N/A
4:15 am 04:15 Clear 40 4.2 31 -0.7 71 71 WNW 7 11 30.06 1018 10 16 N/A
4:35 am 04:35 Clear 38 3.5 30 -1 73 73 WNW 6 9 30.06 1018 10 16 N/A
4:55 am 04:55 Clear 37 2.6 29 -1.6 74 74 WNW 7 11 30.08 1019 10 16 N/A
5:15 am 05:15 Clear 38 3.3 30 -1.2 73 73 WNW 6 9 30.06 1018 10 16 N/A
5:35 am 05:35 Clear 37 2.5 29 -1.5 75 75 WNW 8 13 30.07 1018 10 16 N/A
5:55 am 05:55 Clear 36 2.4 29 -1.6 75 75 WNW 6 9 30.07 1018 10 16 N/A
6:15 am 06:15 Clear 37 2.5 29 -1.7 74 74 WNW 6 9 30.07 1018 10 16 N/A
6:35 am 06:35 Clear 37 2.6 29 -1.6 74 74 WNW 5 7 30.07 1018 10 16 N/A
6:55 am 06:55 Clear 37 2.6 29 -1.6 74 74 W 5 7 30.07 1018 10 16 N/A
7:15 am 07:15 Clear 36 2.3 28 -2 74 74 WNW 6 9 30.08 1019 10 16 N/A
7:35 am 07:35 Clear 37 3 29 -1.5 73 73 W 6 9 30.09 1019 10 16 N/A
7:55 am 07:55 Sunny 39 3.7 29 -1.4 70 70 W 8 13 30.07 1018 10 16 N/A
8:15 am 08:15 Sunny 38 3.4 30 -1.1 73 73 W 6 9 30.07 1018 10 16 N/A
8:35 am 08:35 Sunny 40 4.7 30 -1 67 67 W 6 9 30.07 1018 10 16 N/A
8:55 am 08:55 Sunny 42 5.3 31 -0.8 65 65 W 9 15 30.08 1018 10 16 N/A
9:15 am 09:15 Sunny 43 6.1 31 -0.3 64 64 W 6 9 30.06 1018 10 16 N/A
9:35 am 09:35 Sunny 46 7.9 31 -0.3 57 57 W 7 11 30.05 1018 10 16 N/A
9:55 am 09:55 Sunny 47 8.1 31 -0.6 55 55 WSW 10 17 30.05 1018 10 16 N/A
10:15 am 10:15 Sunny 47 8.4 31 -0.6 53 53 W 9 15 30.06 1018 10 16 N/A
10:35 am 10:35 Sunny 48 8.9 30 -0.9 51 51 WSW 10 17 30.05 1018 10 16 N/A
10:55 am 10:55 Sunny 50 9.8 30 -1.1 47 47 WSW 12 19 30.04 1017 10 16 N/A
11:15 am 11:15 Sunny 51 10.6 29 -1.4 44 44 WSW 12 19 30.02 1017 10 16 N/A
11:35 am 11:35 Sunny 53 11.6 29 -1.5 40 40 WSW 13 20 30.00 1016 10 16 N/A
11:55 am 11:55 Sunny 55 12.9 29 -1.7 37 37 W 9 15 29.98 1015 10 16 N/A
12:15 pm 12:15 Sunny 56 13.5 29 -1.9 35 35 WSW 10 17 29.96 1015 10 16 N/A
12:35 pm 12:35 Sunny 56 13.6 28 -2 34 34 SW 12 19 29.95 1014 10 16 N/A
12:55 pm 12:55 Sunny 58 14.4 28 -2.1 32 32 WSW 8 13 29.93 1014 10 16 N/A
1:15 pm 13:15 Sunny 60 15.8 27 -2.6 28 28 W 15 24 29.92 1013 10 16 N/A
1:35 pm 13:35 Sunny 62 16.9 27 -2.6 26 26 WSW 16 26 29.89 1012 10 16 N/A
1:55 pm 13:55 Sunny 64 17.8 27 -2.8 25 25 W 15 24 29.88 1012 10 16 N/A
2:15 pm 14:15 Sunny 66 19 27 -2.8 23 23 W 18 30 29.86 1011 10 16 N/A
2:35 pm 14:35 Sunny 65 18.6 27 -3 23 23 W 18 30 29.86 1011 10 16 N/A
2:55 pm 14:55 Sunny 66 18.7 27 -2.7 23 23 W 15 24 29.86 1011 10 16 N/A
3:15 pm 15:15 Sunny 65 18.5 27 -2.7 24 24 W 15 24 29.87 1012 10 16 N/A
3:35 pm 15:35 Sunny 65 18.2 27 -2.7 24 24 WSW 10 17 29.87 1012 10 16 N/A
3:55 pm 15:55 Sunny 64 18 27 -2.7 24 24 WSW 9 15 29.88 1012 10 16 N/A
4:15 pm 16:15 Sunny 65 18.5 27 -2.9 23 23 WSW 7 11 29.88 1012 10 16 N/A
4:35 pm 16:35 Sunny 65 18.1 27 -2.6 24 24 WSW 9 15 29.87 1012 10 16 N/A
4:55 pm 16:55 Sunny 63 17.3 27 -2.6 26 26 W 9 15 29.89 1012 10 16 N/A
5:15 pm 17:15 Clear 61 16 27 -2.6 28 28 WSW 6 9 29.91 1013 10 16 N/A
5:35 pm 17:35 Clear 61 16.2 27 -2.6 28 28 WSW 7 11 29.91 1013 10 16 N/A
5:55 pm 17:55 Clear 62 16.5 27 -2.7 27 27 WSW 10 17 29.91 1013 10 16 N/A
6:15 pm 18:15 Clear 62 16.7 27 -2.7 27 27 WSW 9 15 29.90 1013 10 16 N/A
6:35 pm 18:35 Clear 62 16.5 27 -3 26 26 WSW 10 17 29.91 1013 10 16 N/A
6:55 pm 18:55 Clear 61 15.9 26 -3.1 27 27 W 9 15 29.91 1013 10 16 N/A
7:15 pm 19:15 Clear 60 15.3 26 -3.1 28 28 WSW 9 15 29.91 1013 10 16 N/A
7:35 pm 19:35 Clear 58 14.3 27 -2.6 31 31 W 9 15 29.93 1013 10 16 N/A
7:55 pm 19:55 Clear 58 14.5 28 -2 32 32 W 10 17 29.92 1013 10 16 N/A
8:15 pm 20:15 Clear 57 14.1 29 -1.7 34 34 W 9 15 29.93 1013 10 16 N/A
8:35 pm 20:35 Clear 57 13.7 29 -1.5 35 35 WSW 9 15 29.92 1013 10 16 N/A
8:55 pm 20:55 Clear 56 13.6 29 -1.6 35 35 W 7 11 29.92 1013 10 16 N/A
9:15 pm 21:15 Clear 54 12.2 29 -1.7 38 38 WSW 7 11 29.94 1014 10 16 N/A
9:35 pm 21:35 Clear 55 12.5 29 -1.5 38 38 WSW 7 11 29.93 1014 10 16 N/A
9:55 pm 21:55 Clear 57 13.9 30 -1.2 36 36 WSW 6 9 29.92 1013 10 16 N/A
10:15 pm 22:15 Clear 54 12.1 29 -1.5 39 39 WSW 5 7 29.94 1014 10 16 N/A
10:35 pm 22:35 Clear 55 13 30 -1.3 37 37 WSW 10 17 29.93 1013 10 16 N/A
10:55 pm 22:55 Clear 57 13.7 29 -1.5 35 35 WSW 9 15 29.92 1013 10 16 N/A
11:15 pm 23:15 Clear 54 12 29 -1.5 39 39 WSW 9 15 29.95 1014 10 16 N/A
11:35 pm 23:35 Clear 55 12.6 29 -1.6 38 38 WSW 12 19 29.94 1014 10 16 N/A
11:55 pm 23:55 Clear 54 12.4 29 -1.7 38 38 W 12 19 29.95 1014 10 16 N/A

Powered by AerisWeather